CST,Max TemperatureF,Mean TemperatureF,Min TemperatureF,Max Dew PointF,MeanDew PointF,Min DewpointF,Max Humidity, Mean Humidity, Min Humidity, Max Sea Level PressureIn, Mean Sea Level PressureIn, Min Sea Level PressureIn, Max VisibilityMiles, Mean VisibilityMiles, Min VisibilityMiles, Max Wind SpeedMPH, Mean Wind SpeedMPH, Max Gust SpeedMPH,PrecipitationIn, CloudCover, Events, WindDirDegrees
2013-11-1,69,58,46,61,49,39,100,76,33,29.88,29.82,29.75,10,10,7,18,8,,0.00,2,,256
2013-11-2,62,50,37,45,39,34,100,71,34,30.16,29.98,29.86,10,10,10,15,3,,0.00,1,,324
2013-11-3,57,44,30,39,33,28,100,72,36,30.32,30.24,30.15,10,10,4,10,5,,0.00,0,,23
2013-11-4,64,48,32,37,34,30,93,57,30,30.39,30.33,30.27,10,10,10,22,4,24,0.00,0,,151
2013-11-5,62,55,48,39,36,34,58,50,39,30.41,30.34,30.27,10,10,9,12,7,,0.00,2,,145
2013-11-6,71,60,50,61,52,34,100,70,47,30.27,30.16,30.08,10,9,2,18,8,,0.00,6,,167
2013-11-7,59,46,33,57,35,27,100,72,38,30.31,30.25,30.08,10,9,4,17,9,,0.00,3,,347
2013-11-8,53,40,28,30,26,19,93,61,26,30.40,30.32,30.25,10,10,6,10,3,,0.00,0,,38
2013-11-9,57,42,28,39,32,27,100,62,36,30.33,30.27,30.22,10,10,7,13,3,,0.00,1,,194
2013-11-10,64,50,37,43,36,25,93,60,32,30.35,30.30,30.27,10,10,8,12,2,,0.00,1,,1
2013-11-11,66,48,30,36,24,7,86,46,10,30.31,30.24,30.17,10,10,10,5,1,,0.00,3,,192
2013-11-12,51,40,28,43,23,9,93,57,33,30.56,30.40,30.18,10,10,5,20,9,29,0.00,4,,6
2013-11-13,42,30,19,18,16,12,80,55,29,30.66,30.55,30.44,10,10,10,12,5,,0.00,0,,32
2013-11-14,55,37,19,25,17,9,86,51,15,30.45,30.35,30.22,10,10,10,9,2,23,0.00,0,,186
2013-11-15,53,46,39,48,38,18,100,71,36,30.24,30.17,30.10,10,9,4,8,4,,0.00,6,,145
2013-11-16,64,56,48,57,54,48,100,88,73,30.17,30.10,30.04,10,8,2,16,8,,0.00,8,,151
2013-11-17,68,62,57,66,61,55,100,91,77,30.04,29.93,29.84,10,8,2,15,11,21,0.00,8,,189
2013-11-18,60,51,42,55,38,28,100,61,34,30.21,30.11,29.96,10,10,10,14,7,,0.00,1,,347
2013-11-19,50,44,37,27,25,21,65,51,34,30.26,30.19,30.15,10,10,10,14,9,,0.00,0,,29
2013-11-20,59,44,30,37,29,25,86,52,29,30.26,30.21,30.16,10,10,10,16,5,,0.00,0,,142
2013-11-21,62,55,48,52,45,37,82,68,59,30.32,30.27,30.23,10,10,10,13,7,,0.00,7,,162
2013-11-22,60,52,44,57,53,45,100,96,88,30.30,30.26,30.22,10,7,2,15,7,,0.00,8,,261
2013-11-23,44,34,24,45,32,16,100,79,44,30.46,30.36,30.27,10,9,3,17,11,,0.00,4,,360
2013-11-24,33,25,17,16,9,3,80,52,28,30.58,30.49,30.42,10,10,10,15,10,18,0.00,1,,30
2013-11-25,39,32,24,34,18,7,93,56,26,30.42,30.30,30.14,10,9,4,12,4,,0.00,4,,129
2013-11-26,42,36,30,43,36,28,100,98,87,30.14,29.93,29.81,10,6,1,21,7,,0.00,8,,19
2013-11-27,30,24,17,28,17,9,93,68,47,30.34,30.14,29.91,10,10,10,18,14,,0.00,4,,342
2013-11-28,42,27,12,18,13,9,86,61,25,30.48,30.41,30.33,10,10,9,6,0,,0.00,0,,207
2013-11-29,51,36,21,25,20,16,86,63,30,30.56,30.50,30.44,10,10,10,7,1,,0.00,0,,44
2013-11-30,55,40,26,28,24,18,80,52,23,30.49,30.38,30.26,10,10,9,13,5,,0.00,0,,173